Location: Unspecified
(47.8330°N, 0.0000°E)
Time: 18:17:27
(UTC+00:00)

VELOX 1 - Pass Details

Date: 27 August 2019
Orbit: 629 x 643 km, 98.2° (Epoch: 23 September)

Event Time Altitude Azimuth Distance (km) Brightness Sun altitude
Exits shadow 00:38:21 31° 35° (NE) 1,112 ? -31.4°
Drops below altitude 10° 00:41:17 10° 1° (N) 2,027 ? -31.3°
Sets 00:43:37 0° 353° (N) 2,942 ? -31.2°
